Tulsa Jones, OK

1:11 AM CDT on October 20, 2017 (GMT -0500)
Jones Jr.

Weather History for KRVS - December, 2011

Change the Weather History Date:

Friday, December 16, 2011

  Actual Average (KTUL) Record (KTUL)
Temperature  
Mean Temperature 36 °F -  
Max Temperature 45 °F 47 °F 77 °F (1908)
Min Temperature 26 °F 27 °F 3 °F (1989)
Degree Days  
Heating Degree Days 30    
Moisture  
Dew Point 24 °F    
Average Humidity 64    
Maximum Humidity 88    
Minimum Humidity 44    
Precipitation  
Precipitation 0.00 in - - ()
Sea Level Pressure  
Sea Level Pressure 30.45 in    
Wind  
Wind Speed 5 mph (North)    
Max Wind Speed 9 mph    
Max Gust Speed -    
Visibility 10 miles    
Events      
Averages and records for this station are not official NWS values.
T = Trace of Precipitation, MM = Missing Value Source: NWS Daily Summary

Daily Weather History Graph

Daily Weather History Graph

Search for Another Location

Airport or City:

Trip Planner

Search our weather history database for the weather conditions in past years. The results will help you decide how hot, cold, wet, or windy it might be!

Date:

Astronomy

Dec. 16, 2011 Rise Set
Actual Time 7:27 AM CST 5:11 PM CST
Civil Twilight 6:59 AM CST 5:39 PM CST
Nautical Twilight 6:27 AM CST 6:11 PM CST
Astronomical Twilight 5:55 AM CST 6:43 PM CST
Moon 11:34 PM CST (12/16) 11:23 AM CST (12/16)
Length of Visible Light 10h 40m
Length of Day
9h 43m
Waning Gibbous, 64% of the Moon is Illuminated
Dec 16
Waning Gibbous
Dec 17
Last Quarter
Dec 24
New
Jan 1
First Quarter
Jan 9
Full

Hourly Weather History & Observations

Time (CST) Temp. Windchill Dew Point Humidity Pressure Visibility Wind Dir Wind Speed Gust Speed Precip Events Conditions
12:53 AM 37.0 °F 31.6 °F 24.1 °F 59% 30.39 in 10.0 mi North 6.9 mph - N/A   Clear
1:53 AM 34.0 °F 31.0 °F 25.0 °F 70% 30.40 in 10.0 mi NNE 3.5 mph - N/A   Clear
4:53 AM 33.1 °F 28.7 °F 25.0 °F 72% 30.43 in 10.0 mi NNW 4.6 mph - N/A   Clear
5:53 AM 32.0 °F 28.7 °F 24.1 °F 73% 30.44 in 10.0 mi North 3.5 mph - N/A   Clear
6:53 AM 30.9 °F 24.3 °F 24.1 °F 76% 30.44 in 10.0 mi North 6.9 mph - N/A   Clear
7:53 AM 30.0 °F 22.4 °F 24.1 °F 79% 30.46 in 10.0 mi NNE 8.1 mph - N/A   Clear
8:53 AM 33.1 °F 26.1 °F 24.1 °F 70% 30.48 in 10.0 mi NNE 8.1 mph - N/A   Clear
9:53 AM 37.0 °F 31.6 °F 25.0 °F 62% 30.50 in 10.0 mi Variable 6.9 mph - N/A   Clear
10:53 AM 39.9 °F 34.5 °F 25.0 °F 55% 30.50 in 10.0 mi NE 8.1 mph - N/A   Clear
11:53 AM 41.0 °F 35.8 °F 24.1 °F 51% 30.49 in 10.0 mi North 8.1 mph - N/A   Clear
12:53 PM 43.0 °F 38.8 °F 25.0 °F 49% 30.46 in 10.0 mi Variable 6.9 mph - N/A   Clear
1:53 PM 44.1 °F 39.0 °F 24.1 °F 45% 30.44 in 10.0 mi North 9.2 mph - N/A   Clear
2:53 PM 45.0 °F 42.6 °F 24.1 °F 44% 30.43 in 10.0 mi North 4.6 mph - N/A   Clear
3:53 PM 45.0 °F 42.6 °F 24.1 °F 44% 30.43 in 10.0 mi NNE 4.6 mph - N/A   Clear
4:53 PM 42.1 °F 40.2 °F 23.0 °F 47% 30.43 in 10.0 mi NNE 3.5 mph - N/A   Clear
5:53 PM 37.9 °F - 24.1 °F 57% 30.45 in 10.0 mi Calm Calm - N/A   Clear
6:53 PM 34.0 °F - 25.0 °F 70% 30.46 in 10.0 mi Calm Calm - N/A   Clear
7:53 PM 32.0 °F - 25.0 °F 75% 30.47 in 10.0 mi Calm Calm - N/A   Clear
10:53 PM 26.1 °F - 23.0 °F 88% 30.49 in 10.0 mi Calm Calm - N/A   Clear
11:53 PM 26.1 °F - 23.0 °F 88% 30.48 in 10.0 mi Calm Calm - N/A   Clear